SCOUT A R/B, 2755

Orbit data source: Space-Track

SCOUT A R/B, 2755 is space debris in LEO originally from a launch on Fri, 14 Apr 1967 UTC launched from the Air Force Western Test Range (AFWTR). Debris objects in space refer to the collection of defunct objects orbiting the Earth. Examples of debris include non-operational satellites, rocket bodies, and fragments generated from explosions, collisions, or faulty payload assembly.

Loading next visibility...
Identifier
2755, 1967-034B
Orbit
LEO
Country
Flag of USUS
Related business
Manufacturer
ABL
Mission
Spacecraft
Bus & Motor
ALTAIR, Unknown motor
Mass
33 kg wet, 33 kg dry
Launch date (UTC)
1967-04-14 (59 years ago)
Launch vehicle
Unknown
Launch site
Air Force Western Test Range (AFWTR)
Object type
Payload
Rocket body
Debris
Shape & HBR
Unknown
Radar Cross Section
Medium (>0.1 m² and <1 m²)

Expand to show TLE details & history
Last TLE update: 14 hours ago

TLE from 14 hours ago
0 SCOUT A R/B
1 02755U 67034B   25302.75588063  .00000148  00000-0  20606-3 0  9993
2 02755  90.2679  49.8542 0023862 305.1811 209.2377 13.53998956890854
Epoch: 2025-10-29T18:08Z
TLE epoch observation values (Epoch: 2025-10-29T18:08:28.086Z)
Latitude
25.7433°
Longitude
-80.45876°
Altitude
1,076.26 km
Speed
7.308 km/s
True Right ascension
15h 19m 55s
True Declination
25° 36' 53"
Sunlit
Object was in daylight at epoch
Visualization orbit readout
Latitude
Unknown
Longitude
Unknown
Altitude
Unknown
Speed
Unknown
Apparent Right ascension
Unknown
Apparent Declination
Unknown
Sunlit
N/A
Visualization observer readout
Local Sidereal Time
04:13:13
Azimuth
Unknown
Elevation
Unknown
Doppler factor
Unknown
Orbital elements
Apogee altitude
1,072.362 km
Perigee altitude
1,036.89 km
Semi-major axis
7,432.763 km
Eccentricity
0.00239
Inclination
90.2679°
RAAN
49.8542°
Arg. of periapsis
305.1811°
True anomaly
209.10449°
Mean anomaly
209.2377°
Eccentric anomaly
209.17106°
Mean motion
3.38702 °/min
Orbital period
106.29 mins
BSTAR
0.00020606
Loading maneuver chart data...
Computing Atmospheric mass density...
Loading historical data...
Loading historical data...
Loading historical data...
Loading historical data...
Loading historical data...
Loading historical data...
Loading historical data...

Documentation

Showing up to 5 results
|